Portada
METAR-TAF:

METAR-TAF

Aeroports :

Tri-City Airport

Parsons, Kansas, Estats Units d'Amèrica

latitud: 37-19-40N, longitud: 095-30-15W, altitud: 274 m

Observació

L'informe es va fer fa 53 minuts, a les 08:52 UTC
Vent calma
Temperatura 18°C
Humitat 94%
Pressió 1018 hPa
Visibilitat: 16.1 km
Cel clar

METAR: KPPF 020852Z AUTO 00000KT 10SM CLR 18/17 A3006 RMK AO2 SLP172 T01830167 56007

Hora: 04:45 (09:45 UTC)


TAF: manca

Observacions i pronòstics meteorològics de més de 4000 aeroports (METAR i TAF).

Les estacions disponibles són els punts grocs i vermells al mapa.

Posi el ratolí al punt desitjat per veure el nom de l'estació.

Feu clic per veure les observacions i els pronòstics meteorològics.

Per canviar el mapa: feu clic els botons verds amb una creu de color negre per apropar; al botó verd amb un guió per allunyar la imatge; o en les fletxes verdes per a mapes adjacents.


METAR-TAF: